When you browse on this site, cookies collect data to enhance your experience and personalize the content and advertising you see.
Visit our Privacy Policy to learn more. By continuing to use the site, you agree to this use of cookies and data.
  • In United Kingdom
  • List of Countries
  • For 7 days
  • Water Temperature
  • Weather Map
  • Weather Widgets
  • user-avatar
    Login

    Hourly Weather Graz

    Today, 18 August, Sunday

    Time Temperature Precipitation Wind Pressure Humidity
    00:00 +19°C° 0 mm 1 mps 724 mmHg 78%
    01:00 +19°C° 0 mm 1 mps 724 mmHg 81%
    02:00 +19°C° 0 mm 1 mps 723 mmHg 81%
    03:00 +19°C° 0 mm 1 mps 723 mmHg 81%
    04:00 +19°C° 0 mm 1 mps 723 mmHg 80%
    05:00 +20°C° 0 mm 1 mps 723 mmHg 78%
    06:00 +21°C° 0 mm 1 mps 723 mmHg 77%
    07:00 +22°C° 0 mm 1 mps 724 mmHg 75%
    08:00 +25°C° 0 mm 1 mps 724 mmHg 67%
    09:00 +27°C° 0 mm 1 mps 724 mmHg 58%
    10:00 +30°C° 0 mm 1 mps 724 mmHg 50%
    11:00 +30°C° 0 mm 1 mps 724 mmHg 46%
    12:00 +31°C° 0 mm 2 mps 724 mmHg 42%
    13:00 +32°C° 0 mm 2 mps 724 mmHg 37%
    14:00 +32°C° 0 mm 2 mps 723 mmHg 39%
    15:00 +32°C° 0 mm 2 mps 723 mmHg 41%
    16:00 +31°C° 0 mm 2 mps 723 mmHg 43%
    17:00 +29°C° 0 mm 2 mps 723 mmHg 54%
    18:00 +26°C° 0 mm 1 mps 723 mmHg 65%
    19:00 +24°C° 0 mm 1 mps 723 mmHg 76%
    20:00 +23°C° 0 mm 1 mps 723 mmHg 79%
    21:00 +22°C° 0 mm 1 mps 723 mmHg 81%
    22:00 +21°C° 0 mm 1 mps 723 mmHg 84%
    23:00 +21°C° 0 mm 1 mps 723 mmHg 86%

    Tomorrow, 19 August, Monday

    Time Temperature Precipitation Wind Pressure Humidity
    00:00 +20°C° 0 mm 1 mps 723 mmHg 87%
    01:00 +20°C° 0 mm 1 mps 723 mmHg 88%
    02:00 +19°C° 0 mm 1 mps 723 mmHg 88%
    03:00 +19°C° 0 mm 1 mps 723 mmHg 89%
    04:00 +19°C° 0 mm 1 mps 723 mmHg 90%
    05:00 +20°C° 0 mm 1 mps 724 mmHg 86%
    06:00 +21°C° 0 mm 1 mps 724 mmHg 82%
    07:00 +22°C° 0 mm 1 mps 725 mmHg 79%
    08:00 +24°C° 0 mm 1 mps 725 mmHg 73%
    09:00 +26°C° 0 mm 1 mps 725 mmHg 66%
    10:00 +28°C° 0 mm 1 mps 726 mmHg 60%
    11:00 +28°C° 0.6 mm 1 mps 726 mmHg 61%
    12:00 +29°C° 0.6 mm 1 mps 726 mmHg 62%
    13:00 +29°C° 0.6 mm 1 mps 726 mmHg 63%
    14:00 +28°C° 0.7 mm 1 mps 726 mmHg 66%
    15:00 +27°C° 0.7 mm 1 mps 726 mmHg 69%
    16:00 +26°C° 0.7 mm 1 mps 726 mmHg 72%
    17:00 +25°C° 0.4 mm 1 mps 726 mmHg 76%
    18:00 +22°C° 0.4 mm 0 mps 726 mmHg 80%
    19:00 +21°C° 0.4 mm 0 mps 726 mmHg 84%
    20:00 +20°C° 0.1 mm 0 mps 726 mmHg 85%
    21:00 +19°C° 0.1 mm 0 mps 726 mmHg 86%
    22:00 +19°C° 0.1 mm 0 mps 727 mmHg 87%
    23:00 +18°C° 0 mm 0 mps 727 mmHg 88%

    Day after tomorrow, 20 August, Tuesday

    Time Temperature Precipitation Wind Pressure Humidity
    00:00 +18°C° 0 mm 0 mps 727 mmHg 88%
    01:00 +18°C° 0 mm 0 mps 727 mmHg 88%
    02:00 +17°C° 0 mm 0 mps 727 mmHg 88%
    03:00 +17°C° 0 mm 0 mps 727 mmHg 88%
    04:00 +17°C° 0 mm 0 mps 727 mmHg 89%
    05:00 +18°C° 0 mm 0 mps 727 mmHg 87%
    06:00 +19°C° 0 mm 0 mps 727 mmHg 85%
    07:00 +20°C° 0 mm 0 mps 727 mmHg 83%
    08:00 +22°C° 0 mm 0 mps 727 mmHg 73%
    09:00 +26°C° 0 mm 1 mps 727 mmHg 64%
    10:00 +28°C° 0 mm 1 mps 727 mmHg 54%
    11:00 +29°C° 0 mm 1 mps 727 mmHg 52%
    12:00 +30°C° 0 mm 2 mps 727 mmHg 50%
    13:00 +30°C° 0 mm 2 mps 726 mmHg 48%
    14:00 +30°C° 0 mm 2 mps 726 mmHg 49%
    15:00 +31°C° 0 mm 2 mps 725 mmHg 50%
    16:00 +31°C° 0 mm 2 mps 725 mmHg 51%
    17:00 +29°C° 0 mm 2 mps 725 mmHg 60%
    18:00 +26°C° 0 mm 1 mps 725 mmHg 69%
    19:00 +24°C° 0 mm 1 mps 724 mmHg 78%
    20:00 +24°C° 0 mm 1 mps 725 mmHg 80%
    21:00 +23°C° 0 mm 1 mps 725 mmHg 82%
    22:00 +22°C° 0 mm 1 mps 726 mmHg 84%
    23:00 +22°C° 0 mm 1 mps 726 mmHg 85%

    21 August, Wednesday

    Time Temperature Precipitation Wind Pressure Humidity
    00:00 +22°C° 0 mm 1 mps 726 mmHg 86%
    01:00 +21°C° 0 mm 1 mps 726 mmHg 87%
    02:00 +21°C° 0.1 mm 1 mps 726 mmHg 88%
    03:00 +21°C° 0.1 mm 1 mps 727 mmHg 89%
    04:00 +20°C° 0.1 mm 1 mps 727 mmHg 90%
    05:00 +21°C° 0 mm 1 mps 727 mmHg 89%
    06:00 +21°C° 0 mm 1 mps 728 mmHg 87%
    07:00 +21°C° 0 mm 1 mps 728 mmHg 85%
    08:00 +22°C° 0.1 mm 1 mps 729 mmHg 79%
    09:00 +23°C° 0.1 mm 1 mps 729 mmHg 74%
    10:00 +24°C° 0.1 mm 1 mps 729 mmHg 68%
    11:00 +24°C° 0.5 mm 1 mps 729 mmHg 71%
    12:00 +24°C° 0.5 mm 1 mps 729 mmHg 75%
    13:00 +23°C° 0.5 mm 1 mps 729 mmHg 78%
    14:00 +23°C° 0.3 mm 1 mps 729 mmHg 77%
    15:00 +23°C° 0.3 mm 1 mps 729 mmHg 77%
    16:00 +23°C° 0.3 mm 1 mps 729 mmHg 77%
    17:00 +23°C° 0.3 mm 1 mps 729 mmHg 80%
    18:00 +22°C° 0.3 mm 1 mps 729 mmHg 83%
    19:00 +21°C° 0.3 mm 1 mps 729 mmHg 86%
    20:00 +20°C° 0 mm 1 mps 729 mmHg 86%
    21:00 +20°C° 0 mm 1 mps 729 mmHg 86%
    22:00 +20°C° 0 mm 1 mps 729 mmHg 86%
    23:00 +19°C° 0 mm 1 mps 729 mmHg 87%

    22 August, Thursday

    Time Temperature Precipitation Wind Pressure Humidity
    00:00 +19°C° 0 mm 1 mps 729 mmHg 88%
    01:00 +18°C° 0 mm 1 mps 729 mmHg 89%
    02:00 +18°C° 0.1 mm 1 mps 729 mmHg 89%
    03:00 +16°C° 0.1 mm 1 mps 729 mmHg 90%
    04:00 +16°C° 0.1 mm 1 mps 728 mmHg 90%
    05:00 +18°C° 0 mm 1 mps 729 mmHg 88%
    06:00 +18°C° 0 mm 1 mps 729 mmHg 86%
    07:00 +19°C° 0 mm 1 mps 729 mmHg 84%
    08:00 +21°C° 0 mm 1 mps 729 mmHg 77%
    09:00 +23°C° 0 mm 1 mps 729 mmHg 70%
    10:00 +25°C° 0 mm 1 mps 730 mmHg 63%
    11:00 +26°C° 0 mm 1 mps 729 mmHg 62%
    12:00 +26°C° 0 mm 1 mps 729 mmHg 60%
    13:00 +27°C° 0 mm 1 mps 729 mmHg 58%
    14:00 +27°C° 0 mm 1 mps 729 mmHg 59%
    15:00 +26°C° 0 mm 1 mps 729 mmHg 60%
    16:00 +26°C° 0 mm 1 mps 729 mmHg 61%
    17:00 +25°C° 0 mm 1 mps 729 mmHg 66%
    18:00 +23°C° 0 mm 1 mps 729 mmHg 71%
    19:00 +22°C° 0 mm 1 mps 729 mmHg 76%
    20:00 +21°C° 0 mm 1 mps 729 mmHg 79%
    21:00 +20°C° 0 mm 1 mps 729 mmHg 82%
    22:00 +19°C° 0 mm 1 mps 729 mmHg 84%
    23:00 +18°C° 0 mm 1 mps 729 mmHg 85%

    23 August, Friday

    Time Temperature Precipitation Wind Pressure Humidity
    00:00 +18°C° 0 mm 1 mps 729 mmHg 86%
    01:00 +18°C° 0 mm 1 mps 729 mmHg 87%
    02:00 +16°C° 0 mm 1 mps 729 mmHg 87%
    03:00 +16°C° 0 mm 1 mps 729 mmHg 87%
    04:00 +16°C° 0 mm 1 mps 729 mmHg 88%
    05:00 +18°C° 0 mm 1 mps 729 mmHg 85%
    06:00 +18°C° 0 mm 1 mps 729 mmHg 82%
    07:00 +19°C° 0 mm 1 mps 729 mmHg 79%
    08:00 +21°C° 0 mm 1 mps 730 mmHg 71%
    09:00 +23°C° 0 mm 1 mps 730 mmHg 63%
    10:00 +25°C° 0 mm 1 mps 730 mmHg 55%
    11:00 +26°C° 0 mm 1 mps 730 mmHg 52%
    12:00 +27°C° 0 mm 1 mps 730 mmHg 49%
    13:00 +28°C° 0 mm 1 mps 729 mmHg 46%
    14:00 +27°C° 0 mm 2 mps 729 mmHg 47%
    15:00 +27°C° 0 mm 2 mps 729 mmHg 48%
    16:00 +27°C° 0 mm 2 mps 728 mmHg 50%
    17:00 +25°C° 0 mm 1 mps 728 mmHg 58%
    18:00 +23°C° 0 mm 1 mps 728 mmHg 66%
    19:00 +21°C° 0 mm 1 mps 728 mmHg 75%
    20:00 +20°C° 0 mm 1 mps 728 mmHg 76%
    21:00 +20°C° 0 mm 1 mps 728 mmHg 76%
    22:00 +19°C° 0 mm 1 mps 729 mmHg 77%
    23:00 +19°C° 0 mm 1 mps 728 mmHg 77%
    Show more